When you browse on this site, cookies collect data to enhance your experience and personalize the content and advertising you see.
Visit our Privacy Policy to learn more. By continuing to use the site, you agree to this use of cookies and data.
  • In Österreich
  • Länderverzeichnis
  • Für 7 Tage
  • Wassertemperatur
  • Wetterkarte
  • News
  • Widgets
  • user-avatar
    Anmelden

    Stündliche Wetter Kolotovschina

    Heute, 29 Mai, Freitag

    Zeit Temperatur Niederschläge Wind Luftdruck Luftfeuchtigkeit
    00:00 +12°C° 0 mm 2 m/S 747 mmHg 78%
    01:00 +12°C° 0 mm 2 m/S 747 mmHg 81%
    02:00 +11°C° 0 mm 3 m/S 747 mmHg 85%
    03:00 +10°C° 0.2 mm 3 m/S 746 mmHg 88%
    04:00 +10°C° 0.2 mm 2 m/S 746 mmHg 91%
    05:00 +10°C° 0.2 mm 2 m/S 745 mmHg 94%
    06:00 +11°C° 0.3 mm 3 m/S 745 mmHg 94%
    07:00 +11°C° 0.3 mm 3 m/S 745 mmHg 93%
    08:00 +11°C° 0.3 mm 3 m/S 745 mmHg 93%
    09:00 +11°C° 0.3 mm 3 m/S 745 mmHg 93%
    10:00 +12°C° 0.3 mm 4 m/S 745 mmHg 94%
    11:00 +12°C° 0.3 mm 4 m/S 745 mmHg 94%
    12:00 +12°C° 0.3 mm 4 m/S 745 mmHg 94%
    13:00 +12°C° 0.3 mm 4 m/S 745 mmHg 93%
    14:00 +12°C° 0.3 mm 4 m/S 744 mmHg 93%
    15:00 +12°C° 0 mm 4 m/S 744 mmHg 90%
    16:00 +13°C° 0 mm 4 m/S 744 mmHg 88%
    17:00 +13°C° 0 mm 4 m/S 744 mmHg 85%
    18:00 +13°C° 0 mm 4 m/S 744 mmHg 86%
    19:00 +13°C° 0 mm 4 m/S 744 mmHg 86%
    20:00 +12°C° 0 mm 4 m/S 744 mmHg 86%
    21:00 +12°C° 0 mm 4 m/S 743 mmHg 87%
    22:00 +12°C° 0 mm 4 m/S 743 mmHg 88%
    23:00 +11°C° 0 mm 4 m/S 743 mmHg 88%

    Morgen, 30 Mai, Samstag

    Zeit Temperatur Niederschläge Wind Luftdruck Luftfeuchtigkeit
    00:00 +11°C° 0 mm 4 m/S 743 mmHg 89%
    01:00 +10°C° 0 mm 5 m/S 743 mmHg 89%
    02:00 +10°C° 0 mm 5 m/S 743 mmHg 89%
    03:00 +10°C° 0 mm 5 m/S 742 mmHg 89%
    04:00 +10°C° 0 mm 5 m/S 742 mmHg 88%
    05:00 +12°C° 0 mm 5 m/S 742 mmHg 88%
    06:00 +12°C° 0.4 mm 5 m/S 742 mmHg 89%
    07:00 +12°C° 0.4 mm 5 m/S 742 mmHg 90%
    08:00 +12°C° 0.4 mm 5 m/S 742 mmHg 91%
    09:00 +11°C° 1.8 mm 6 m/S 741 mmHg 92%
    10:00 +11°C° 1.8 mm 6 m/S 741 mmHg 94%
    11:00 +11°C° 1.8 mm 7 m/S 741 mmHg 96%
    12:00 +11°C° 1.3 mm 7 m/S 741 mmHg 96%
    13:00 +11°C° 1.3 mm 7 m/S 741 mmHg 95%
    14:00 +11°C° 1.3 mm 7 m/S 741 mmHg 95%
    15:00 +12°C° 0.1 mm 7 m/S 741 mmHg 94%
    16:00 +12°C° 0.1 mm 7 m/S 740 mmHg 93%
    17:00 +12°C° 0.1 mm 7 m/S 740 mmHg 92%
    18:00 +14°C° 0.1 mm 7 m/S 740 mmHg 89%
    19:00 +14°C° 0.1 mm 7 m/S 740 mmHg 85%
    20:00 +15°C° 0.1 mm 7 m/S 739 mmHg 82%
    21:00 +15°C° 0 mm 7 m/S 740 mmHg 79%
    22:00 +15°C° 0 mm 7 m/S 740 mmHg 77%
    23:00 +15°C° 0 mm 7 m/S 740 mmHg 74%

    übermorgen, 31 Mai, Sonntag

    Zeit Temperatur Niederschläge Wind Luftdruck Luftfeuchtigkeit
    00:00 +14°C° 0 mm 7 m/S 740 mmHg 74%
    01:00 +14°C° 0 mm 7 m/S 740 mmHg 74%
    02:00 +12°C° 0 mm 7 m/S 740 mmHg 74%
    03:00 +12°C° 0 mm 7 m/S 740 mmHg 73%
    04:00 +12°C° 0 mm 7 m/S 740 mmHg 72%
    05:00 +11°C° 0 mm 7 m/S 740 mmHg 70%
    06:00 +12°C° 0 mm 7 m/S 741 mmHg 66%
    07:00 +14°C° 0 mm 7 m/S 741 mmHg 62%
    08:00 +14°C° 0 mm 7 m/S 741 mmHg 58%
    09:00 +15°C° 0 mm 7 m/S 742 mmHg 55%
    10:00 +16°C° 0 mm 7 m/S 742 mmHg 52%
    11:00 +18°C° 0 mm 7 m/S 743 mmHg 49%
    12:00 +18°C° 0 mm 7 m/S 743 mmHg 47%
    13:00 +18°C° 0 mm 7 m/S 743 mmHg 46%
    14:00 +20°C° 0 mm 6 m/S 744 mmHg 44%
    15:00 +19°C° 0 mm 6 m/S 744 mmHg 47%
    16:00 +17°C° 0 mm 5 m/S 744 mmHg 50%
    17:00 +17°C° 0 mm 5 m/S 744 mmHg 53%
    18:00 +15°C° 0 mm 4 m/S 744 mmHg 58%
    19:00 +14°C° 0 mm 4 m/S 745 mmHg 63%
    20:00 +12°C° 0 mm 3 m/S 745 mmHg 68%
    21:00 +11°C° 0 mm 3 m/S 746 mmHg 67%
    22:00 +10°C° 0 mm 3 m/S 746 mmHg 66%
    23:00 +9°C° 0 mm 3 m/S 747 mmHg 65%

    1 Juni, Montag

    Zeit Temperatur Niederschläge Wind Luftdruck Luftfeuchtigkeit
    00:00 +9°C° 0 mm 3 m/S 747 mmHg 67%
    01:00 +8°C° 0 mm 3 m/S 747 mmHg 69%
    02:00 +7°C° 0 mm 3 m/S 747 mmHg 71%
    03:00 +7°C° 0 mm 3 m/S 747 mmHg 71%
    04:00 +7°C° 0 mm 3 m/S 748 mmHg 72%
    05:00 +5°C° 0 mm 3 m/S 748 mmHg 73%
    06:00 +8°C° 0 mm 3 m/S 748 mmHg 66%
    07:00 +8°C° 0 mm 4 m/S 748 mmHg 58%
    08:00 +11°C° 0 mm 4 m/S 748 mmHg 51%
    09:00 +11°C° 0 mm 4 m/S 748 mmHg 49%
    10:00 +12°C° 0 mm 4 m/S 748 mmHg 46%
    11:00 +13°C° 0 mm 4 m/S 748 mmHg 43%
    12:00 +14°C° 0 mm 4 m/S 748 mmHg 42%
    13:00 +14°C° 0 mm 4 m/S 747 mmHg 41%
    14:00 +15°C° 0 mm 4 m/S 747 mmHg 40%
    15:00 +15°C° 0 mm 4 m/S 747 mmHg 42%
    16:00 +14°C° 0 mm 3 m/S 747 mmHg 45%
    17:00 +14°C° 0 mm 3 m/S 747 mmHg 47%
    18:00 +14°C° 0 mm 2 m/S 747 mmHg 53%
    19:00 +12°C° 0 mm 2 m/S 747 mmHg 59%
    20:00 +10°C° 0 mm 2 m/S 747 mmHg 64%
    21:00 +10°C° 0 mm 1 m/S 747 mmHg 69%
    22:00 +8°C° 0 mm 1 m/S 747 mmHg 73%
    23:00 +7°C° 0 mm 1 m/S 747 mmHg 77%

    2 Juni, Dienstag

    Zeit Temperatur Niederschläge Wind Luftdruck Luftfeuchtigkeit
    00:00 +6°C° 0 mm 1 m/S 747 mmHg 79%
    01:00 +6°C° 0 mm 1 m/S 747 mmHg 81%
    02:00 +4°C° 0 mm 0 m/S 747 mmHg 84%
    03:00 +6°C° 0 mm 1 m/S 747 mmHg 81%
    04:00 +7°C° 0 mm 1 m/S 747 mmHg 78%
    05:00 +8°C° 0 mm 1 m/S 747 mmHg 75%
    06:00 +10°C° 0 mm 1 m/S 747 mmHg 67%
    07:00 +12°C° 0 mm 1 m/S 747 mmHg 59%
    08:00 +13°C° 0 mm 2 m/S 747 mmHg 51%
    09:00 +14°C° 0 mm 2 m/S 747 mmHg 50%
    10:00 +14°C° 0 mm 2 m/S 747 mmHg 48%
    11:00 +15°C° 0 mm 2 m/S 747 mmHg 47%
    12:00 +15°C° 0 mm 2 m/S 747 mmHg 46%
    13:00 +15°C° 0 mm 2 m/S 746 mmHg 45%
    14:00 +16°C° 0 mm 2 m/S 746 mmHg 44%
    15:00 +16°C° 0 mm 2 m/S 746 mmHg 45%
    16:00 +16°C° 0 mm 2 m/S 746 mmHg 46%
    17:00 +16°C° 0 mm 2 m/S 745 mmHg 46%
    18:00 +14°C° 0 mm 1 m/S 745 mmHg 54%
    19:00 +12°C° 0 mm 1 m/S 745 mmHg 62%
    20:00 +9°C° 0 mm 0 m/S 745 mmHg 69%
    21:00 +9°C° 0 mm 0 m/S 745 mmHg 69%
    22:00 +9°C° 0 mm 1 m/S 745 mmHg 70%
    23:00 +8°C° 0 mm 1 m/S 745 mmHg 70%

    3 Juni, Mittwoch

    Zeit Temperatur Niederschläge Wind Luftdruck Luftfeuchtigkeit
    00:00 +8°C° 0 mm 1 m/S 745 mmHg 69%
    01:00 +9°C° 0 mm 1 m/S 745 mmHg 69%
    02:00 +9°C° 0 mm 1 m/S 744 mmHg 68%
    03:00 +9°C° 0 mm 1 m/S 744 mmHg 70%
    04:00 +9°C° 0 mm 1 m/S 744 mmHg 72%
    05:00 +9°C° 0 mm 1 m/S 744 mmHg 74%
    06:00 +11°C° 0 mm 1 m/S 744 mmHg 69%
    07:00 +13°C° 0 mm 1 m/S 744 mmHg 65%
    08:00 +14°C° 0 mm 1 m/S 744 mmHg 60%
    09:00 +15°C° 0.1 mm 1 m/S 743 mmHg 56%
    10:00 +18°C° 0.1 mm 1 m/S 743 mmHg 52%
    11:00 +19°C° 0.1 mm 1 m/S 743 mmHg 48%
    12:00 +19°C° 0.1 mm 1 m/S 743 mmHg 50%
    13:00 +18°C° 0.1 mm 2 m/S 743 mmHg 52%
    14:00 +18°C° 0.1 mm 2 m/S 742 mmHg 54%
    15:00 +17°C° 0.1 mm 2 m/S 742 mmHg 58%
    16:00 +17°C° 0.1 mm 2 m/S 742 mmHg 62%
    17:00 +17°C° 0.1 mm 2 m/S 741 mmHg 66%
    18:00 +15°C° 0.1 mm 2 m/S 741 mmHg 74%
    19:00 +14°C° 0.1 mm 2 m/S 741 mmHg 82%
    20:00 +12°C° 0.1 mm 2 m/S 741 mmHg 90%
    21:00 +12°C° 0 mm 2 m/S 741 mmHg 90%
    22:00 +12°C° 0 mm 2 m/S 741 mmHg 90%
    23:00 +10°C° 0 mm 2 m/S 741 mmHg 90%
    Mehr zeigen